Weather reports worldwide

Advertisment
Hawarden, United Kingdom (3321): temperature & dewpoint: 09.11.2018 00:00:00 - 15.11.2018 00:00:00 (GMT)Hawarden, United Kingdom (3321): temperature -20cm & temperature -100cm: 09.11.2018 00:00:00 - 15.11.2018 00:00:00 (GMT)Hawarden, United Kingdom (3321): wind speed & gusts: 09.11.2018 00:00:00 - 15.11.2018 00:00:00 (GMT)Hawarden, United Kingdom (3321): wind direction: 09.11.2018 00:00:00 - 15.11.2018 00:00:00 (GMT)Hawarden, United Kingdom (3321): reduced air pressure: 09.11.2018 00:00:00 - 15.11.2018 00:00:00 (GMT)Hawarden, United Kingdom (3321): visibility: 09.11.2018 00:00:00 - 15.11.2018 00:00:00 (GMT)Hawarden, United Kingdom (3321): sunshine duration: 09.11.2018 00:00:00 - 15.11.2018 00:00:00 (GMT)Hawarden, United Kingdom (3321): precipitation: 09.11.2018 00:00:00 - 15.11.2018 00:00:00 (GMT)
Date & Time tt [°C] td [°C] tt -20cm [°C] tt -100cm [°C] ff [km/h] ff [kn] fx [km/h] fx [kn] dd ppp [hPa] vv [km] sd [min] rr [mm]
15.11.2018 00:00:00 7,5 5,9 - - 9 5 - - SE 1018,0 21 - 0,0
14.11.2018 23:00:00 7,9 6,4 - - 18 10 - - SSE 1017,7 26 0 0,0
14.11.2018 22:00:00 8,0 6,4 - - 11 6 - - S 1017,8 24 0 0,0
14.11.2018 21:00:00 8,8 7,0 - - 18 10 - - SSE 1017,5 10 0 0,0
14.11.2018 20:00:00 9,2 7,1 - - 16 9 - - S 1017,6 10 0 0,0
14.11.2018 19:00:00 9,5 6,9 - - 11 6 - - S 1017,5 10 0 0,0
14.11.2018 18:00:00 10,4 7,3 - - 21 11 - - SSE 1017,2 10 0 0,0
14.11.2018 17:00:00 11,8 7,7 - - 16 9 - - ESE 1016,8 10 0 0,0
14.11.2018 16:00:00 12,7 7,8 - - 18 10 - - S 1016,5 10 0 0,0
14.11.2018 15:00:00 12,9 8,3 - - 18 10 - - S 1016,7 10 0 0,0
14.11.2018 14:00:00 12,8 8,5 - - 13 7 - - SE 1016,9 10 0 0,0
14.11.2018 13:00:00 13,3 8,2 - - 15 8 - - S 1016,9 10 0 0,0
14.11.2018 12:00:00 13,3 8,9 - - 21 11 - - S 1016,9 10 0 0,0
14.11.2018 11:00:00 13,0 9,1 - - 16 9 - - S 1016,9 10 0 0,0
14.11.2018 10:00:00 13,2 9,3 - - 18 10 - - SSE 1016,7 10 0 0,0
14.11.2018 09:00:00 13,2 9,4 9,4 11,0 24 13 48 26 S 1016,1 50 0 0,0
14.11.2018 08:00:00 12,9 9,3 - - 29 16 46 25 SSW 1016,0 10 0 0,0
14.11.2018 07:00:00 13,0 9,1 - - 31 17 48 26 SSW 1015,3 10 0 0,0
14.11.2018 06:00:00 12,8 8,8 - - 26 14 46 25 SSW 1015,2 50 0 0,0
14.11.2018 05:00:00 11,8 8,3 - - 31 17 52 28 S 1015,0 45 0 0,0
14.11.2018 04:00:00 11,8 8,2 - - 28 15 - - S 1015,3 45 0 0,0
14.11.2018 03:00:00 11,7 7,6 - - 22 12 - - S 1016,0 27 0 0,0
14.11.2018 02:00:00 10,6 8,3 - - 15 8 - - SSE 1017,0 27 0 0,2
14.11.2018 01:00:00 10,4 8,2 - - 16 9 - - SSE 1017,6 19 0 0,2
14.11.2018 00:00:00 10,9 7,8 - - 21 11 - - SSE 1018,2 28 - 0,0
13.11.2018 23:00:00 10,8 7,9 - - 15 8 - - SE 1018,4 30 0 0,0
13.11.2018 22:00:00 10,5 7,7 - - 18 10 - - SE 1018,8 29 0 0,0
13.11.2018 21:00:00 10,9 7,8 - - 21 11 - - SSE 1019,1 10 0 0,0
13.11.2018 20:00:00 10,7 7,7 - - 13 7 - - SE 1019,3 10 0 0,0
13.11.2018 19:00:00 10,6 7,4 - - 15 8 - - SSE 1019,9 10 0 0,0
13.11.2018 18:00:00 10,9 7,3 - - 15 8 - - S 1020,0 10 0 0,0
13.11.2018 17:00:00 11,0 7,5 - - 16 9 - - S 1019,7 10 0 0,0
13.11.2018 16:00:00 10,8 7,3 - - 11 6 - - S 1019,8 10 12 0,0
13.11.2018 15:00:00 10,1 7,3 - - 9 5 - - SSW 1019,3 10 18 0,0
13.11.2018 14:00:00 11,5 7,6 - - 24 13 - - WSW 1019,3 9 24 0,0
13.11.2018 13:00:00 13,1 6,4 - - 24 13 - - WSW 1018,6 10 54 0,0
13.11.2018 12:00:00 12,6 6,9 - - 24 13 - - WSW 1018,5 10 60 0,0
13.11.2018 11:00:00 12,2 6,8 - - 22 12 - - WSW 1017,8 10 60 0,0
13.11.2018 10:00:00 11,2 6,8 - - 21 11 - - WSW 1017,2 10 60 0,0
13.11.2018 09:00:00 9,9 6,4 9,0 11,0 13 7 - - WSW 1015,9 10 48 0,0
13.11.2018 08:00:00 8,5 5,8 - - 15 8 - - SW 1014,8 10 0 0,0
13.11.2018 07:00:00 8,8 6,2 - - 16 9 - - SW 1013,6 10 0 0,0
13.11.2018 06:00:00 8,8 6,4 - - 15 8 - - SSW 1012,3 35 0 0,0
13.11.2018 05:00:00 8,8 6,5 - - 11 6 - - SW 1011,1 27 0 0,0
13.11.2018 04:00:00 8,4 6,0 - - 13 7 - - SW 1009,9 35 0 0,2
13.11.2018 03:00:00 8,2 6,5 - - 11 6 - - SW 1008,8 28 0 0,0
13.11.2018 02:00:00 8,4 7,0 - - 15 8 - - SSW 1008,2 45 0 0,0
13.11.2018 01:00:00 7,4 6,1 - - 16 9 - - S 1007,2 29 0 0,0
13.11.2018 00:00:00 7,1 5,9 - - 8 4 - - S 1006,6 28 - 0,2
12.11.2018 23:00:00 7,5 5,7 - - 22 12 - - SSW 1005,9 50 0 2,0
12.11.2018 22:00:00 7,7 6,2 - - 13 7 - - SSW 1005,9 10 0 0,6
12.11.2018 21:00:00 8,2 6,4 - - 11 6 - - S 1005,0 10 0 1,6
12.11.2018 20:00:00 9,3 7,0 - - 15 8 - - SSE 1005,3 10 0 0,0
12.11.2018 19:00:00 9,4 7,2 - - 22 12 - - SSE 1005,0 10 0 0,0
12.11.2018 18:00:00 9,3 6,3 - - 16 9 - - SSE 1005,2 27 0 0,0
12.11.2018 17:00:00 9,2 6,3 - - 13 7 - - SE 1004,5 10 0 0,0
12.11.2018 16:00:00 9,9 7,0 - - 18 10 - - SSE 1004,0 10 18 0,0
12.11.2018 15:00:00 11,7 7,5 - - 24 13 - - S 1003,9 10 48 0,0
12.11.2018 14:00:00 11,9 8,2 - - 22 12 - - S 1003,7 10 42 0,0
12.11.2018 13:00:00 11,4 8,8 - - 28 15 - - S 1004,0 10 12 0,4
12.11.2018 12:00:00 10,5 9,2 - - 21 11 - - S 1004,1 10 18 0,0
12.11.2018 11:00:00 9,8 8,7 - - 15 8 - - SSE 1004,2 9 6 0,2
12.11.2018 10:00:00 8,2 7,5 - - 11 6 - - SSE 1004,2 10 0 0,0
12.11.2018 09:00:00 7,0 6,6 9,0 11,2 15 8 - - SSE 1003,9 10 0 0,0
12.11.2018 08:00:00 6,6 5,9 - - 8 4 - - ESE 1003,5 10 0 0,0
12.11.2018 07:00:00 6,9 6,3 - - 15 8 - - SSE 1003,2 10 0 0,0
12.11.2018 06:00:00 7,0 6,1 - - 13 7 - - SSE 1003,0 17 0 0,0
12.11.2018 05:00:00 7,1 6,1 - - 9 5 - - SE 1002,6 17 0 0,0
12.11.2018 04:00:00 7,7 6,5 - - 11 6 - - SSE 1002,3 15 0 0,0
12.11.2018 03:00:00 7,5 6,2 - - 15 8 - - SE 1002,0 17 0 0,0
12.11.2018 02:00:00 7,4 6,3 - - 8 4 - - ENE 1001,9 21 0 0,0
12.11.2018 01:00:00 5,6 4,9 - - 5 3 - - ESE 1001,5 19 0 0,0
12.11.2018 00:00:00 5,6 4,6 - - 9 5 - - SSE 1001,1 18 - 0,0
11.11.2018 23:00:00 6,3 4,8 - - 8 4 - - NE 1001,0 24 0 0,0
11.11.2018 22:00:00 7,6 5,6 - - 16 9 - - SSE 1000,3 18 0 0,0
11.11.2018 21:00:00 7,6 5,8 - - 16 9 - - SSE 1000,0 22 0 0,0
11.11.2018 20:00:00 7,5 5,7 - - 16 9 - - SSE 999,6 20 0 0,0
11.11.2018 19:00:00 7,5 5,4 - - 15 8 - - SSE 999,1 10 0 0,0
11.11.2018 18:00:00 8,9 6,1 - - 18 10 - - SSE 998,8 10 0 0,0
11.11.2018 17:00:00 7,0 3,8 - - 13 7 - - S 997,9 10 0 0,0
11.11.2018 16:00:00 10,3 5,3 - - 13 7 - - S 997,1 10 48 0,0
11.11.2018 15:00:00 11,8 6,6 - - 18 10 - - SW 996,6 10 48 0,0
11.11.2018 14:00:00 11,6 5,8 - - 26 14 - - SW 995,9 10 48 0,0
11.11.2018 13:00:00 11,4 5,4 - - 34 18 - - SW 994,8 10 48 0,0
11.11.2018 12:00:00 11,9 7,0 - - 24 13 - - SSW 994,0 10 54 0,0
11.11.2018 11:00:00 10,1 7,0 - - 22 12 - - SSW 993,1 10 6 0,0
11.11.2018 10:00:00 8,9 8,0 - - 11 6 - - SSW 991,9 10 0 0,0
11.11.2018 09:00:00 7,6 7,4 9,5 11,2 5 3 - - WSW 991,2 7 0 0,0
11.11.2018 08:00:00 6,6 6,4 - - 8 4 - - SSE 990,8 6 0 0,4
11.11.2018 07:00:00 6,1 5,8 - - 9 5 - - SE 990,5 10 0 0,0
11.11.2018 06:00:00 5,6 5,2 - - 9 5 - - S 990,5 10 0 0,0
11.11.2018 05:00:00 6,4 5,9 - - 9 5 - - SSE 990,8 8 0 0,0
11.11.2018 04:00:00 6,7 6,0 - - 18 10 - - S 990,9 17 0 0,0
11.11.2018 03:00:00 6,8 6,1 - - 18 10 - - SSE 991,0 17 0 0,0
11.11.2018 02:00:00 6,7 5,7 - - 15 8 - - SSE 991,3 24 0 0,0
11.11.2018 01:00:00 6,9 6,3 - - 13 7 - - SSE 991,1 16 0 0,0
11.11.2018 00:00:00 6,9 6,4 - - 11 6 - - SSE 991,3 15 - 0,0
10.11.2018 23:00:00 7,0 6,3 - - 5 3 - - S 991,3 14 0 0,0
10.11.2018 22:00:00 7,9 6,8 - - 9 5 - - S 991,2 18 0 0,0
10.11.2018 21:00:00 7,9 6,6 - - 15 8 - - S 991,1 21 0 0,0
10.11.2018 20:00:00 8,4 6,5 - - 16 9 - - S 990,9 29 0 0,0
10.11.2018 19:00:00 9,3 7,4 - - 16 9 - - S 990,6 10 0 0,0
10.11.2018 18:00:00 9,1 6,9 - - 11 6 - - S 990,3 40 0 0,0
10.11.2018 17:00:00 10,5 7,8 - - 16 9 - - S 989,6 10 0 0,0
10.11.2018 16:00:00 10,7 7,6 - - 15 8 - - SSE 989,3 10 6 0,0
10.11.2018 15:00:00 11,8 8,1 - - 21 11 - - S 989,1 10 6 0,0
10.11.2018 14:00:00 12,0 8,0 - - 18 10 - - SSE 988,8 10 0 0,0
10.11.2018 13:00:00 11,4 8,6 - - 16 9 - - SSE 989,0 10 6 0,0
10.11.2018 12:00:00 11,9 9,2 - - 22 12 - - SSE 989,6 10 18 0,0
10.11.2018 11:00:00 9,4 8,0 - - 11 6 - - SE 990,5 10 0 0,0
10.11.2018 10:00:00 9,1 7,2 - - 11 6 - - SSE 990,6 10 6 0,0
10.11.2018 09:00:00 8,3 6,8 9,9 11,2 15 8 - - S 990,6 10 6 0,0
10.11.2018 08:00:00 7,0 5,7 - - 13 7 - - SSE 990,0 14 0 0,0
10.11.2018 07:00:00 7,7 6,3 - - 18 10 - - SSE 989,1 17 0 0,0
10.11.2018 06:00:00 6,3 5,0 - - 9 5 - - SE 988,8 19 0 0,0
10.11.2018 05:00:00 6,3 5,6 - - 13 7 - - S 988,0 16 0 0,0
10.11.2018 04:00:00 8,0 6,8 - - 11 6 - - SSW 987,9 15 0 0,4
10.11.2018 03:00:00 9,4 8,3 - - 9 5 - - WSW 987,7 12 0 0,4
10.11.2018 02:00:00 8,1 7,5 - - 5 3 - - E 986,9 21 0 0,0
10.11.2018 01:00:00 8,9 8,1 - - 13 7 - - S 986,5 50 0 0,0
10.11.2018 00:00:00 10,3 9,2 - - 13 7 - - SE 986,3 50 - 0,0
09.11.2018 23:00:00 10,3 9,2 - - 22 12 - - SSE 986,3 45 0 0,0
09.11.2018 22:00:00 10,3 9,2 - - 24 13 50 27 SSE 986,3 12 0 0,2
09.11.2018 21:00:00 10,5 9,2 - - 31 17 57 31 SSE 986,8 9 0 1,6
09.11.2018 20:00:00 10,3 9,1 - - 37 20 55 30 SSE 986,9 9 0 2,8
09.11.2018 19:00:00 10,4 8,8 - - 37 20 55 30 SSE 988,3 9 0 2,4
09.11.2018 18:00:00 11,3 7,7 - - 39 21 59 32 SSE 989,1 10 0 0,0
09.11.2018 17:00:00 11,3 7,2 - - 29 16 57 31 SE 990,7 10 0 0,0
09.11.2018 16:00:00 11,1 7,0 - - 31 17 50 27 SSE 992,7 10 0 0,0
09.11.2018 15:00:00 11,3 9,5 - - 28 15 46 25 SSE 994,5 10 0 0,0
09.11.2018 14:00:00 11,9 9,0 - - 26 14 - - SE 995,7 10 0 0,0
09.11.2018 13:00:00 11,7 8,9 - - 26 14 - - SE 997,4 10 0 0,0
09.11.2018 12:00:00 10,9 8,8 - - 28 15 46 25 SE 999,1 10 0 0,0
09.11.2018 11:00:00 11,0 8,5 - - 22 12 - - SSE 1000,4 10 0 0,0
09.11.2018 10:00:00 10,3 8,3 - - 24 13 - - SE 1001,8 10 0 0,0
09.11.2018 09:00:00 9,8 8,0 10,0 11,2 26 14 48 26 SE 1002,7 10 0 0,0
09.11.2018 08:00:00 9,3 7,6 - - 21 11 - - SE 1003,6 10 0 0,0
09.11.2018 07:00:00 9,3 7,5 - - 22 12 - - SE 1004,3 10 0 0,0
09.11.2018 06:00:00 9,2 7,4 - - 22 12 - - SE 1004,9 14 0 0,0
09.11.2018 05:00:00 8,7 6,8 - - 15 8 - - SSE 1005,6 16 0 0,0
09.11.2018 04:00:00 8,7 6,7 - - 13 7 - - SSE 1006,2 18 0 0,0
09.11.2018 03:00:00 9,1 6,7 - - 18 10 - - ESE 1006,4 19 0 0,0
09.11.2018 02:00:00 9,2 6,8 - - 28 15 46 25 SSE 1006,6 21 0 0,0
09.11.2018 01:00:00 9,5 6,8 - - 29 16 50 27 SE 1007,1 21 0 0,0
09.11.2018 00:00:00 9,9 6,9 - - 28 15 46 25 SSE 1007,8 23 - 0,0

tt = temperature
td = dewpoint
tt -20cm = temperature -20cm
tt -100cm = temperature -100cm
ff = wind speed
fx = gusts
dd = wind direction
ppp = reduced air pressure
vv = visibility
sd = sunshine duration
rr = precipitation

Next stations